Time,TemperatureF,DewpointF,PressureIn,WindDirection,WindDirectionDegrees,WindSpeedMPH,WindSpeedGustMPH,Humidity,HourlyPrecipIn,Conditions,Clouds,dailyrainin,SoftwareType,DateUTC
2013-04-27 05:07:00,44.1,23.0,30.15,North,-999,0.0,0.0,43,0.00,,,-99.99,FreeWX 2.04,2013-04-27 09:07:00,
2013-04-27 07:01:00,46.2,25.0,30.15,North,-999,0.0,0.0,43,0.00,,,-99.99,FreeWX 2.04,2013-04-27 11:01:00,
2013-04-27 07:06:00,46.4,25.2,30.15,North,-999,0.0,0.0,43,0.00,,,-99.99,FreeWX 2.04,2013-04-27 11:06:00,
2013-04-27 07:11:00,46.4,25.2,30.15,North,-999,0.0,4.0,43,0.00,,,-99.99,FreeWX 2.04,2013-04-27 11:11:00,
2013-04-27 07:16:00,46.9,25.7,30.15,North,-999,0.0,5.4,43,0.00,,,-99.99,FreeWX 2.04,2013-04-27 11:16:00,
2013-04-27 07:21:00,47.3,25.3,30.15,North,-999,0.0,2.7,42,0.00,,,-99.99,FreeWX 2.04,2013-04-27 11:21:00,
2013-04-27 07:26:00,47.8,25.9,30.15,North,-999,0.0,0.0,42,0.00,,,-99.99,FreeWX 2.04,2013-04-27 11:26:00,
2013-04-27 07:31:00,48.2,25.7,30.15,North,-999,0.0,4.5,41,0.00,,,-99.99,FreeWX 2.04,2013-04-27 11:31:00,
2013-04-27 07:36:00,48.7,26.1,30.15,North,-999,0.0,3.6,41,0.00,,,-99.99,FreeWX 2.04,2013-04-27 11:36:00,
2013-04-27 07:41:00,49.1,25.9,30.15,North,-999,0.0,7.4,40,0.00,,,-99.99,FreeWX 2.04,2013-04-27 11:41:00,
2013-04-27 07:46:00,49.3,25.3,30.15,North,-999,0.0,3.1,39,0.00,,,-99.99,FreeWX 2.04,2013-04-27 11:46:00,
2013-04-27 07:51:00,49.6,25.7,30.15,North,-999,0.0,4.0,39,0.00,,,-99.99,FreeWX 2.04,2013-04-27 11:51:00,
2013-04-27 07:56:00,50.2,25.5,30.15,North,-999,0.0,3.6,38,0.00,,,-99.99,FreeWX 2.04,2013-04-27 11:56:00,
2013-04-27 08:01:00,50.9,26.2,30.15,North,-999,0.0,4.9,38,0.00,,,-99.99,FreeWX 2.04,2013-04-27 12:01:00,
2013-04-27 08:06:00,51.3,25.9,30.15,North,-999,0.0,3.6,37,0.00,,,-99.99,FreeWX 2.04,2013-04-27 12:06:00,
2013-04-27 08:11:00,50.9,25.0,30.15,North,-999,0.0,3.6,36,0.00,,,-99.99,FreeWX 2.04,2013-04-27 12:11:00,
2013-04-27 08:16:00,50.7,25.3,30.15,North,-999,0.0,3.1,37,0.00,,,-99.99,FreeWX 2.04,2013-04-27 12:16:00,
2013-04-27 08:21:00,50.9,25.0,30.15,North,-999,0.0,4.0,36,0.00,,,-99.99,FreeWX 2.04,2013-04-27 12:21:00,
2013-04-27 08:26:00,51.8,26.4,30.15,WSW,237,1.0,7.8,37,0.00,,,-99.99,FreeWX 2.04,2013-04-27 12:26:00,
2013-04-27 08:31:00,53.1,26.8,30.15,SW,229,1.0,4.0,36,0.00,,,-99.99,FreeWX 2.04,2013-04-27 12:31:00,
2013-04-27 08:36:00,53.8,26.8,30.15,North,-999,0.0,4.5,35,0.00,,,-99.99,FreeWX 2.04,2013-04-27 12:36:00,
2013-04-27 08:41:00,54.5,25.3,30.15,North,-999,0.0,4.5,32,0.00,,,-99.99,FreeWX 2.04,2013-04-27 12:41:00,
2013-04-27 08:46:00,55.4,26.1,30.15,West,270,1.0,5.4,32,0.00,,,-99.99,FreeWX 2.04,2013-04-27 12:46:00,
2013-04-27 08:51:00,56.7,25.5,30.15,West,263,1.0,6.3,30,0.00,,,-99.99,FreeWX 2.04,2013-04-27 12:51:00,
2013-04-27 08:56:00,57.6,25.5,30.15,WSW,244,1.0,4.5,29,0.00,,,-99.99,FreeWX 2.04,2013-04-27 12:56:00,
2013-04-27 09:01:00,58.6,25.7,30.15,WSW,248,1.0,4.0,28,0.00,,,-99.99,FreeWX 2.04,2013-04-27 13:01:00,
2013-04-27 09:06:00,59.4,25.3,30.15,WSW,256,1.0,6.3,27,0.00,,,-99.99,FreeWX 2.04,2013-04-27 13:06:00,
2013-04-27 09:11:00,60.1,24.1,30.15,West,275,1.0,4.5,25,0.00,,,-99.99,FreeWX 2.04,2013-04-27 13:11:00,
2013-04-27 09:16:00,60.6,24.6,30.15,West,280,1.0,5.8,25,0.00,,,-99.99,FreeWX 2.04,2013-04-27 13:16:00,
2013-04-27 09:21:00,61.7,24.6,30.15,WSW,252,1.0,4.0,24,0.00,,,-99.99,FreeWX 2.04,2013-04-27 13:21:00,
2013-04-27 09:26:00,63.1,25.7,30.15,North,-999,0.0,4.0,24,0.00,,,-99.99,FreeWX 2.04,2013-04-27 13:26:00,
2013-04-27 09:31:00,63.5,25.0,30.15,WSW,245,1.0,4.9,23,0.00,,,-99.99,FreeWX 2.04,2013-04-27 13:31:00,
2013-04-27 09:36:00,64.6,25.9,30.15,WSW,243,1.0,5.4,23,0.00,,,-99.99,FreeWX 2.04,2013-04-27 13:36:00,
2013-04-27 09:41:00,64.9,26.2,30.15,WSW,240,1.0,5.4,23,0.00,,,-99.99,FreeWX 2.04,2013-04-27 13:41:00,
2013-04-27 09:51:00,67.1,27.0,30.15,SSW,208,1.0,4.9,22,0.00,,,-99.99,FreeWX 2.04,2013-04-27 13:51:00,
2013-04-27 09:56:00,67.5,25.0,30.15,SW,230,1.0,4.0,20,0.00,,,-99.99,FreeWX 2.04,2013-04-27 13:56:00,
2013-04-27 10:01:00,68.2,25.5,30.15,WSW,256,1.0,4.5,20,0.00,,,-99.99,FreeWX 2.04,2013-04-27 14:01:00,
2013-04-27 10:06:00,69.1,22.5,30.15,WSW,240,1.0,6.3,17,0.00,,,-99.99,FreeWX 2.04,2013-04-27 14:06:00,
2013-04-27 10:11:00,69.4,22.8,30.15,SW,233,1.0,4.9,17,0.00,,,-99.99,FreeWX 2.04,2013-04-27 14:11:00,
2013-04-27 10:16:00,70.5,23.5,30.15,SW,229,2.0,7.4,17,0.00,,,-99.99,FreeWX 2.04,2013-04-27 14:16:00,
2013-04-27 10:21:00,71.8,23.2,30.15,SW,219,2.0,6.3,16,0.00,,,-99.99,FreeWX 2.04,2013-04-27 14:21:00,
2013-04-27 10:26:00,71.2,19.6,30.15,SW,235,1.0,5.8,14,0.00,,,-99.99,FreeWX 2.04,2013-04-27 14:26:00,
2013-04-27 10:32:00,70.9,19.4,30.15,West,265,2.0,8.7,14,0.00,,,-99.99,FreeWX 2.04,2013-04-27 14:32:00,
2013-04-27 10:37:00,71.4,22.8,30.15,West,259,1.0,4.5,16,0.00,,,-99.99,FreeWX 2.04,2013-04-27 14:37:00,
2013-04-27 10:42:00,72.7,23.9,30.15,SW,231,2.0,6.3,16,0.00,,,-99.99,FreeWX 2.04,2013-04-27 14:42:00,
2013-04-27 10:47:00,72.3,20.5,30.15,WSW,241,2.0,5.4,14,0.00,,,-99.99,FreeWX 2.04,2013-04-27 14:47:00,
2013-04-27 10:52:00,72.7,19.0,30.15,WSW,256,2.0,5.8,13,0.00,,,-99.99,FreeWX 2.04,2013-04-27 14:52:00,
2013-04-27 10:57:00,72.3,20.5,30.15,West,260,2.0,5.8,14,0.00,,,-99.99,FreeWX 2.04,2013-04-27 14:57:00,
2013-04-27 11:02:00,71.2,19.6,30.15,West,267,3.0,7.8,14,0.00,,,-99.99,FreeWX 2.04,2013-04-27 15:02:00,
2013-04-27 11:07:00,70.9,19.4,30.15,West,264,3.0,5.8,14,0.00,,,-99.99,FreeWX 2.04,2013-04-27 15:07:00,
2013-04-27 11:12:00,71.1,19.4,30.15,West,270,2.0,6.3,14,0.00,,,-99.99,FreeWX 2.04,2013-04-27 15:12:00,
2013-04-27 11:17:00,72.5,20.7,30.15,WSW,250,2.0,5.8,14,0.00,,,-99.99,FreeWX 2.04,2013-04-27 15:17:00,
2013-04-27 11:22:00,72.3,20.5,30.15,West,274,2.0,5.8,14,0.00,,,-99.99,FreeWX 2.04,2013-04-27 15:22:00,
2013-04-27 11:27:00,72.3,20.5,30.15,NW,306,2.0,6.7,14,0.00,,,-99.99,FreeWX 2.04,2013-04-27 15:27:00,
2013-04-27 11:32:00,72.7,19.0,30.15,West,266,3.0,6.3,13,0.00,,,-99.99,FreeWX 2.04,2013-04-27 15:32:00,
2013-04-27 11:37:00,74.1,20.1,30.15,WSW,243,3.0,6.3,13,0.00,,,-99.99,FreeWX 2.04,2013-04-27 15:37:00,
2013-04-27 11:42:00,73.6,19.8,30.15,WSW,255,3.0,8.7,13,0.00,,,-99.99,FreeWX 2.04,2013-04-27 15:42:00,
2013-04-27 11:47:00,74.7,20.5,30.15,WSW,246,3.0,5.8,13,0.00,,,-99.99,FreeWX 2.04,2013-04-27 15:47:00,
2013-04-27 11:52:00,76.6,22.1,30.15,SW,216,3.0,6.9,13,0.00,,,-99.99,FreeWX 2.04,2013-04-27 15:52:00,
2013-04-27 11:57:00,76.8,22.3,30.15,SSW,213,3.0,9.6,13,0.00,,,-99.99,FreeWX 2.04,2013-04-27 15:57:00,
2013-04-27 12:02:00,75.4,21.2,30.15,South,172,3.0,5.4,13,0.00,,,-99.99,FreeWX 2.04,2013-04-27 16:02:00,
2013-04-27 12:07:00,72.9,19.2,30.15,SSE,152,3.0,6.7,13,0.00,,,-99.99,FreeWX 2.04,2013-04-27 16:07:00,
2013-04-27 12:12:00,72.1,20.3,30.15,SSE,159,3.0,6.9,14,0.00,,,-99.99,FreeWX 2.04,2013-04-27 16:12:00,
2013-04-27 12:17:00,70.9,19.4,30.15,SSE,156,3.0,6.9,14,0.00,,,-99.99,FreeWX 2.04,2013-04-27 16:17:00,
2013-04-27 12:22:00,69.6,18.3,30.15,SSE,157,4.0,6.3,14,0.00,,,-99.99,FreeWX 2.04,2013-04-27 16:22:00,
2013-04-27 12:27:00,69.4,18.1,30.15,SSE,164,4.0,5.8,14,0.00,,,-99.99,FreeWX 2.04,2013-04-27 16:27:00,
2013-04-27 12:32:00,69.1,18.0,30.15,South,173,2.0,4.5,14,0.00,,,-99.99,FreeWX 2.04,2013-04-27 16:32:00,
2013-04-27 12:37:00,69.8,18.5,30.12,South,180,2.0,5.8,14,0.00,,,-99.99,FreeWX 2.04,2013-04-27 16:37:00,
2013-04-27 12:42:00,70.3,18.9,30.12,South,177,3.0,4.9,14,0.00,,,-99.99,FreeWX 2.04,2013-04-27 16:42:00,
2013-04-27 12:47:00,70.7,19.2,30.12,South,172,3.0,5.8,14,0.00,,,-99.99,FreeWX 2.04,2013-04-27 16:47:00,
2013-04-27 12:52:00,71.6,19.9,30.12,South,178,3.0,7.4,14,0.00,,,-99.99,FreeWX 2.04,2013-04-27 16:52:00,
2013-04-27 12:57:00,72.1,20.3,30.12,South,182,3.0,6.7,14,0.00,,,-99.99,FreeWX 2.04,2013-04-27 16:57:00,
2013-04-27 13:02:00,72.7,19.0,30.12,South,179,3.0,6.3,13,0.00,,,-99.99,FreeWX 2.04,2013-04-27 17:02:00,
2013-04-27 13:07:00,72.3,20.5,30.12,South,180,4.0,6.7,14,0.00,,,-99.99,FreeWX 2.04,2013-04-27 17:07:00,
2013-04-27 13:12:00,72.7,19.0,30.12,South,179,4.0,6.3,13,0.00,,,-99.99,FreeWX 2.04,2013-04-27 17:12:00,
2013-04-27 13:17:00,72.5,20.7,30.12,South,179,3.0,5.4,14,0.00,,,-99.99,FreeWX 2.04,2013-04-27 17:17:00,
2013-04-27 13:22:00,73.0,19.2,30.12,South,180,3.0,6.3,13,0.00,,,-99.99,FreeWX 2.04,2013-04-27 17:22:00,
2013-04-27 13:27:00,73.4,19.6,30.12,South,177,3.0,5.4,13,0.00,,,-99.99,FreeWX 2.04,2013-04-27 17:27:00,
2013-04-27 13:32:00,73.0,19.2,30.12,South,174,3.0,5.8,13,0.00,,,-99.99,FreeWX 2.04,2013-04-27 17:32:00,
2013-04-27 13:37:00,72.7,19.0,30.12,South,172,3.0,5.4,13,0.00,,,-99.99,FreeWX 2.04,2013-04-27 17:37:00,
2013-04-27 13:42:00,72.5,18.9,30.12,South,174,3.0,5.4,13,0.00,,,-99.99,FreeWX 2.04,2013-04-27 17:42:00,
2013-04-27 13:47:00,72.9,19.2,30.12,South,177,3.0,6.7,13,0.00,,,-99.99,FreeWX 2.04,2013-04-27 17:47:00,
2013-04-27 13:52:00,73.2,19.4,30.12,South,175,3.0,5.8,13,0.00,,,-99.99,FreeWX 2.04,2013-04-27 17:52:00,
2013-04-27 13:57:00,73.4,19.6,30.12,South,175,3.0,5.8,13,0.00,,,-99.99,FreeWX 2.04,2013-04-27 17:57:00,
2013-04-27 14:02:00,73.8,19.9,30.12,South,180,3.0,5.8,13,0.00,,,-99.99,FreeWX 2.04,2013-04-27 18:02:00,
2013-04-27 14:07:00,73.4,19.6,30.12,South,175,3.0,5.8,13,0.00,,,-99.99,FreeWX 2.04,2013-04-27 18:07:00,
2013-04-27 14:12:00,73.4,19.6,30.12,South,173,3.0,5.8,13,0.00,,,-99.99,FreeWX 2.04,2013-04-27 18:12:00,
2013-04-27 14:17:00,73.9,19.9,30.12,South,176,3.0,5.8,13,0.00,,,-99.99,FreeWX 2.04,2013-04-27 18:17:00,
2013-04-27 14:22:00,74.1,20.1,30.12,South,176,3.0,7.4,13,0.00,,,-99.99,FreeWX 2.04,2013-04-27 18:22:00,
2013-04-27 14:27:00,74.1,20.1,30.12,South,178,3.0,5.4,13,0.00,,,-99.99,FreeWX 2.04,2013-04-27 18:27:00,
2013-04-27 14:32:00,74.1,20.1,30.12,South,175,3.0,5.8,13,0.00,,,-99.99,FreeWX 2.04,2013-04-27 18:32:00,
2013-04-27 14:37:00,73.9,19.9,30.12,South,173,4.0,7.4,13,0.00,,,-99.99,FreeWX 2.04,2013-04-27 18:37:00,
2013-04-27 14:42:00,73.8,19.9,30.12,South,177,4.0,6.7,13,0.00,,,-99.99,FreeWX 2.04,2013-04-27 18:42:00,
2013-04-27 14:47:00,73.6,19.8,30.12,South,180,3.0,6.3,13,0.00,,,-99.99,FreeWX 2.04,2013-04-27 18:47:00,
2013-04-27 14:52:00,73.9,19.9,30.12,South,177,3.0,6.9,13,0.00,,,-99.99,FreeWX 2.04,2013-04-27 18:52:00,
2013-04-27 14:57:00,73.9,19.9,30.12,South,179,4.0,6.9,13,0.00,,,-99.99,FreeWX 2.04,2013-04-27 18:57:00,
2013-04-27 15:02:00,73.9,19.9,30.12,South,182,4.0,7.8,13,0.00,,,-99.99,FreeWX 2.04,2013-04-27 19:02:00,
2013-04-27 15:07:00,73.9,19.9,30.09,South,183,4.0,6.9,13,0.00,,,-99.99,FreeWX 2.04,2013-04-27 19:07:00,
2013-04-27 15:12:00,73.9,19.9,30.09,South,189,4.0,7.4,13,0.00,,,-99.99,FreeWX 2.04,2013-04-27 19:12:00,
2013-04-27 15:17:00,73.8,19.9,30.09,SSW,193,3.0,5.8,13,0.00,,,-99.99,FreeWX 2.04,2013-04-27 19:17:00,
2013-04-27 15:22:00,73.6,19.8,30.09,South,185,3.0,8.7,13,0.00,,,-99.99,FreeWX 2.04,2013-04-27 19:22:00,
2013-04-27 15:27:00,73.8,19.9,30.09,South,177,4.0,8.3,13,0.00,,,-99.99,FreeWX 2.04,2013-04-27 19:27:00,
2013-04-27 15:32:00,73.4,19.6,30.09,South,173,4.0,7.4,13,0.00,,,-99.99,FreeWX 2.04,2013-04-27 19:32:00,
2013-04-27 15:37:00,73.9,19.9,30.09,South,172,4.0,6.7,13,0.00,,,-99.99,FreeWX 2.04,2013-04-27 19:37:00,
2013-04-27 15:42:00,74.8,20.7,30.09,South,174,4.0,8.7,13,0.00,,,-99.99,FreeWX 2.04,2013-04-27 19:42:00,
2013-04-27 15:47:00,74.5,20.5,30.09,South,171,4.0,6.7,13,0.00,,,-99.99,FreeWX 2.04,2013-04-27 19:47:00,
2013-04-27 15:52:00,74.8,20.7,30.09,South,177,4.0,7.4,13,0.00,,,-99.99,FreeWX 2.04,2013-04-27 19:52:00,
2013-04-27 15:57:00,75.0,20.8,30.09,South,174,4.0,5.8,13,0.00,,,-99.99,FreeWX 2.04,2013-04-27 19:57:00,
2013-04-27 16:02:00,74.3,20.3,30.09,SSE,168,3.0,6.9,13,0.00,,,-99.99,FreeWX 2.04,2013-04-27 20:02:00,
2013-04-27 16:07:00,75.6,21.2,30.09,South,174,3.0,7.8,13,0.00,,,-99.99,FreeWX 2.04,2013-04-27 20:07:00,
2013-04-27 16:12:00,75.6,21.2,30.09,South,174,4.0,7.8,13,0.00,,,-99.99,FreeWX 2.04,2013-04-27 20:12:00,
2013-04-27 16:17:00,75.6,21.2,30.09,SSW,195,4.0,7.8,13,0.00,,,-99.99,FreeWX 2.04,2013-04-27 20:17:00,
2013-04-27 16:22:00,75.9,21.6,30.06,SSW,197,3.0,6.9,13,0.00,,,-99.99,FreeWX 2.04,2013-04-27 20:22:00,
2013-04-27 16:27:00,76.5,21.9,30.06,South,189,4.0,6.9,13,0.00,,,-99.99,FreeWX 2.04,2013-04-27 20:27:00,
2013-04-27 16:32:00,76.6,22.1,30.06,SW,224,4.0,8.3,13,0.00,,,-99.99,FreeWX 2.04,2013-04-27 20:32:00,
2013-04-27 16:37:00,76.1,21.7,30.06,WSW,237,4.0,10.1,13,0.00,,,-99.99,FreeWX 2.04,2013-04-27 20:37:00,
2013-04-27 16:42:00,76.6,22.1,30.06,SW,216,4.0,6.9,13,0.00,,,-99.99,FreeWX 2.04,2013-04-27 20:42:00,
2013-04-27 16:47:00,76.6,22.1,30.06,SSW,212,3.0,6.7,13,0.00,,,-99.99,FreeWX 2.04,2013-04-27 20:47:00,
2013-04-27 16:52:00,76.6,22.1,30.06,SW,220,3.0,9.2,13,0.00,,,-99.99,FreeWX 2.04,2013-04-27 20:52:00,
2013-04-27 16:57:00,76.3,21.7,30.06,SW,225,3.0,6.9,13,0.00,,,-99.99,FreeWX 2.04,2013-04-27 20:57:00,
2013-04-27 17:02:00,76.1,21.7,30.06,SW,214,3.0,6.9,13,0.00,,,-99.99,FreeWX 2.04,2013-04-27 21:02:00,
2013-04-27 17:07:00,75.6,21.2,30.06,SSW,192,3.0,7.8,13,0.00,,,-99.99,FreeWX 2.04,2013-04-27 21:07:00,
2013-04-27 17:12:00,75.2,21.0,30.06,South,183,3.0,6.9,13,0.00,,,-99.99,FreeWX 2.04,2013-04-27 21:12:00,
2013-04-27 17:17:00,74.5,20.5,30.06,SSW,200,3.0,8.3,13,0.00,,,-99.99,FreeWX 2.04,2013-04-27 21:17:00,
2013-04-27 17:22:00,73.6,19.8,30.06,SSW,207,4.0,6.9,13,0.00,,,-99.99,FreeWX 2.04,2013-04-27 21:22:00,
2013-04-27 17:27:00,72.5,20.7,30.06,South,182,3.0,10.5,14,0.00,,,-99.99,FreeWX 2.04,2013-04-27 21:27:00,
2013-04-27 17:32:00,72.0,20.1,30.06,South,172,3.0,6.9,14,0.00,,,-99.99,FreeWX 2.04,2013-04-27 21:32:00,
2013-04-27 17:37:00,71.1,19.4,30.06,SSE,164,3.0,6.3,14,0.00,,,-99.99,FreeWX 2.04,2013-04-27 21:37:00,
2013-04-27 17:42:00,68.4,18.9,30.06,South,170,3.0,5.8,15,0.00,,,-99.99,FreeWX 2.04,2013-04-27 21:42:00,
2013-04-27 17:47:00,66.7,17.6,30.06,SSE,158,3.0,5.8,15,0.00,,,-99.99,FreeWX 2.04,2013-04-27 21:47:00,
2013-04-27 17:52:00,65.7,16.7,30.06,SSE,156,3.0,4.9,15,0.00,,,-99.99,FreeWX 2.04,2013-04-27 21:52:00,
2013-04-27 17:57:00,65.1,16.3,30.06,South,178,2.0,4.5,15,0.00,,,-99.99,FreeWX 2.04,2013-04-27 21:57:00,
2013-04-27 18:02:00,64.2,15.6,30.06,South,176,1.0,6.3,15,0.00,,,-99.99,FreeWX 2.04,2013-04-27 22:02:00,
2013-04-27 18:07:00,64.0,15.4,30.06,North,-999,0.0,4.5,15,0.00,,,-99.99,FreeWX 2.04,2013-04-27 22:07:00,
2013-04-27 18:12:00,65.5,19.6,30.06,South,172,1.0,4.5,17,0.00,,,-99.99,FreeWX 2.04,2013-04-27 22:12:00,
2013-04-27 18:17:00,66.7,20.5,30.06,South,175,1.0,3.6,17,0.00,,,-99.99,FreeWX 2.04,2013-04-27 22:17:00,
2013-04-27 18:22:00,67.1,20.8,30.06,North,-999,0.0,4.5,17,0.00,,,-99.99,FreeWX 2.04,2013-04-27 22:22:00,
2013-04-27 18:27:00,67.5,21.2,30.06,North,-999,0.0,4.0,17,0.00,,,-99.99,FreeWX 2.04,2013-04-27 22:27:00,
2013-04-27 18:32:00,67.8,21.4,30.06,North,-999,0.0,5.8,17,0.00,,,-99.99,FreeWX 2.04,2013-04-27 22:32:00,
2013-04-27 18:37:00,66.6,17.4,30.06,North,-999,0.0,4.0,15,0.00,,,-99.99,FreeWX 2.04,2013-04-27 22:37:00,
2013-04-27 18:42:00,64.8,16.0,30.06,North,-999,0.0,0.0,15,0.00,,,-99.99,FreeWX 2.04,2013-04-27 22:42:00,
2013-04-27 18:47:00,62.6,15.8,30.06,North,-999,0.0,4.0,16,0.00,,,-99.99,FreeWX 2.04,2013-04-27 22:47:00,
2013-04-27 18:52:00,61.3,14.7,30.06,North,-999,0.0,4.5,16,0.00,,,-99.99,FreeWX 2.04,2013-04-27 22:52:00,
2013-04-27 18:57:00,60.1,17.8,30.06,North,-999,0.0,3.1,19,0.00,,,-99.99,FreeWX 2.04,2013-04-27 22:57:00,
2013-04-27 19:02:00,59.2,16.9,30.06,North,-999,0.0,0.0,19,0.00,,,-99.99,FreeWX 2.04,2013-04-27 23:02:00,
2013-04-27 19:07:00,58.1,16.2,30.06,North,-999,0.0,0.0,19,0.00,,,-99.99,FreeWX 2.04,2013-04-27 23:07:00,
2013-04-27 19:12:00,57.2,18.7,30.06,North,-999,0.0,0.0,22,0.00,,,-99.99,FreeWX 2.04,2013-04-27 23:12:00,
2013-04-27 19:17:00,56.8,20.5,30.06,North,-999,0.0,2.7,24,0.00,,,-99.99,FreeWX 2.04,2013-04-27 23:17:00,
2013-04-27 19:22:00,56.7,21.2,30.06,North,-999,0.0,0.0,25,0.00,,,-99.99,FreeWX 2.04,2013-04-27 23:22:00,
2013-04-27 19:27:00,56.5,21.0,30.06,North,-999,0.0,0.0,25,0.00,,,-99.99,FreeWX 2.04,2013-04-27 23:27:00,
2013-04-27 19:32:00,56.7,21.2,30.06,North,-999,0.0,0.0,25,0.00,,,-99.99,FreeWX 2.04,2013-04-27 23:32:00,
2013-04-27 19:37:00,55.9,20.7,30.03,North,-999,0.0,0.0,25,0.00,,,-99.99,FreeWX 2.04,2013-04-27 23:37:00,
2013-04-27 19:42:00,55.4,21.0,30.03,North,-999,0.0,0.0,26,0.00,,,-99.99,FreeWX 2.04,2013-04-27 23:42:00,
2013-04-27 19:47:00,54.9,20.7,30.03,North,-999,0.0,0.0,26,0.00,,,-99.99,FreeWX 2.04,2013-04-27 23:47:00,
2013-04-27 19:52:00,54.3,21.0,30.03,North,-999,0.0,0.0,27,0.00,,,-99.99,FreeWX 2.04,2013-04-27 23:52:00,
2013-04-27 19:57:00,54.0,20.8,30.03,North,-999,0.0,0.0,27,0.00,,,-99.99,FreeWX 2.04,2013-04-27 23:57:00,
2013-04-27 20:02:00,53.6,20.5,30.03,North,-999,0.0,4.0,27,0.00,,,-99.99,FreeWX 2.04,2013-04-28 00:02:00,
2013-04-27 20:07:00,53.2,20.1,30.03,North,-999,0.0,0.0,27,0.00,,,-99.99,FreeWX 2.04,2013-04-28 00:07:00,
2013-04-27 20:12:00,52.9,20.7,30.03,North,-999,0.0,0.0,28,0.00,,,-99.99,FreeWX 2.04,2013-04-28 00:12:00,
2013-04-27 20:17:00,52.3,20.3,30.03,North,-999,0.0,0.0,28,0.00,,,-99.99,FreeWX 2.04,2013-04-28 00:17:00,
2013-04-27 20:22:00,52.0,20.7,30.03,North,-999,0.0,0.0,29,0.00,,,-99.99,FreeWX 2.04,2013-04-28 00:22:00,
2013-04-27 20:27:00,51.6,20.5,30.03,North,-999,0.0,0.0,29,0.00,,,-99.99,FreeWX 2.04,2013-04-28 00:27:00,
2013-04-27 20:32:00,51.4,20.3,30.03,North,-999,0.0,0.0,29,0.00,,,-99.99,FreeWX 2.04,2013-04-28 00:32:00,
2013-04-27 20:37:00,51.3,20.8,30.03,North,-999,0.0,0.0,30,0.00,,,-99.99,FreeWX 2.04,2013-04-28 00:37:00,
2013-04-27 20:42:00,50.9,20.7,30.03,North,-999,0.0,0.0,30,0.00,,,-99.99,FreeWX 2.04,2013-04-28 00:42:00,
2013-04-27 20:47:00,50.7,21.9,30.03,North,-999,0.0,0.0,32,0.00,,,-99.99,FreeWX 2.04,2013-04-28 00:47:00,
2013-04-27 20:52:00,50.5,22.5,30.03,North,-999,0.0,4.0,33,0.00,,,-99.99,FreeWX 2.04,2013-04-28 00:52:00,
2013-04-27 20:57:00,50.2,22.8,30.03,North,-999,0.0,0.0,34,0.00,,,-99.99,FreeWX 2.04,2013-04-28 00:57:00,
2013-04-27 21:02:00,49.8,22.6,30.03,North,-999,0.0,0.0,34,0.00,,,-99.99,FreeWX 2.04,2013-04-28 01:02:00,
2013-04-27 21:07:00,49.5,23.0,30.03,North,-999,0.0,0.0,35,0.00,,,-99.99,FreeWX 2.04,2013-04-28 01:07:00,
2013-04-27 21:12:00,49.3,22.8,30.03,North,-999,0.0,0.0,35,0.00,,,-99.99,FreeWX 2.04,2013-04-28 01:12:00,
2013-04-27 21:17:00,49.1,23.4,30.03,North,-999,0.0,0.0,36,0.00,,,-99.99,FreeWX 2.04,2013-04-28 01:17:00,
2013-04-27 21:22:00,48.7,23.0,30.03,North,-999,0.0,0.0,36,0.00,,,-99.99,FreeWX 2.04,2013-04-28 01:22:00,
2013-04-27 21:27:00,48.7,23.7,30.03,North,-999,0.0,0.0,37,0.00,,,-99.99,FreeWX 2.04,2013-04-28 01:27:00,
2013-04-27 21:32:00,48.6,23.5,30.03,North,-999,0.0,0.0,37,0.00,,,-99.99,FreeWX 2.04,2013-04-28 01:32:00,
2013-04-27 21:37:00,48.4,23.4,30.03,North,-999,0.0,0.0,37,0.00,,,-99.99,FreeWX 2.04,2013-04-28 01:37:00,
2013-04-27 21:42:00,48.2,23.2,30.03,North,-999,0.0,0.0,37,0.00,,,-99.99,FreeWX 2.04,2013-04-28 01:42:00,
2013-04-27 21:47:00,48.0,23.0,30.03,North,-999,0.0,0.0,37,0.00,,,-99.99,FreeWX 2.04,2013-04-28 01:47:00,
2013-04-27 21:52:00,47.8,22.8,30.03,North,-999,0.0,0.0,37,0.00,,,-99.99,FreeWX 2.04,2013-04-28 01:52:00,
2013-04-27 21:57:00,47.8,22.8,30.03,North,-999,0.0,0.0,37,0.00,,,-99.99,FreeWX 2.04,2013-04-28 01:57:00,